Change the Weather History Date:

Friday, October 4, 2013

  Actual Average (KJLN) Record (KJLN)
Temperature  
Mean Temperature 79 °F 63 °F  
Max Temperature 85 °F 75 °F 91 °F (1963)
Min Temperature 73 °F 52 °F 34 °F (1968)
Degree Days  
Heating Degree Days 0 4  
Month to date heating degree days 16  
Since 1 July heating degree days 58  
Cooling Degree Days 14 3  
Month to date cooling degree days 12  
Year to date cooling degree days 1654  
Growing Degree Days 29 (Base 50)    
Moisture  
Dew Point 69 °F    
Average Humidity 75    
Maximum Humidity 100    
Minimum Humidity 54    
Precipitation  
Precipitation 0.00 in 0.14 in 1.18 in (1955)
Month to date precipitation 0.54  
Year to date precipitation 36.46  
Sea Level Pressure  
Sea Level Pressure 29.85 in    
Wind  
Wind Speed 13 mph (SSW)    
Max Wind Speed 23 mph    
Max Gust Speed 29 mph    
Visibility 10 miles    
Events      
T = Trace of Precipitation, MM = Missing Value Source: NWS Daily Summary

Daily Weather History Graph

Daily Weather History Graph

Search for Another Location

Airport or City:

Trip Planner

Search our weather history database for the weather conditions in past years. The results will help you decide how hot, cold, wet, or windy it might be!

Date:

Astronomy

Oct. 04, 2013 Rise Set
Actual Time 7:17 AM CDT 6:57 PM CDT
Civil Twilight 6:51 AM CDT 7:23 PM CDT
Nautical Twilight 6:20 AM CDT 7:53 PM CDT
Astronomical Twilight 5:50 AM CDT 8:23 PM CDT
Moon 6:53 AM CDT (10/4) 6:41 PM CDT (10/4)
Length of Visible Light 12h 32m
Length of Day
11h 39m
Waning Crescent, 0% of the Moon is Illuminated
Oct 4
Waning Crescent
Oct 4
New
Oct 11
First Quarter
Oct 18
Full
Oct 26
Last Quarter

Hourly Weather History & Observations

Time (CDT) Temp. Heat Index Dew Point Humidity Pressure Visibility Wind Dir Wind Speed Gust Speed Precip Events Conditions
12:15 AM 75.9 °F - 70.7 °F 84% 29.85 in 10.0 mi South 10.4 mph - N/A   Clear
12:35 AM 75.4 °F - 70.5 °F 85% 29.84 in 10.0 mi South 12.7 mph 17.3 mph N/A   Clear
12:55 AM 74.3 °F - 69.8 °F 86% 29.84 in 10.0 mi South 12.7 mph - N/A   Clear
1:15 AM 73.4 °F - 69.6 °F 88% 29.84 in 10.0 mi South 12.7 mph 17.3 mph N/A   Clear
1:35 AM 73.4 °F - 69.8 °F 88% 29.84 in 10.0 mi South 12.7 mph 21.9 mph N/A   Clear
1:55 AM 73.4 °F - 69.8 °F 88% 29.85 in 10.0 mi South 16.1 mph 20.7 mph N/A   Clear
2:15 AM 73.4 °F - 70.0 °F 89% 29.85 in 10.0 mi South 15.0 mph 19.6 mph N/A   Clear
2:35 AM 73.4 °F - 70.2 °F 90% 29.85 in 10.0 mi South 12.7 mph 20.7 mph N/A   Clear
2:55 AM 73.4 °F - 70.5 °F 91% 29.85 in 10.0 mi South 13.8 mph 19.6 mph N/A   Clear
3:15 AM 73.4 °F - 71.2 °F 93% 29.85 in 10.0 mi South 9.2 mph 17.3 mph N/A   Clear
3:35 AM 73.4 °F - 72.0 °F 95% 29.84 in 10.0 mi South 11.5 mph - N/A   Clear
3:55 AM 73.4 °F - 72.5 °F 97% 29.84 in 10.0 mi South 10.4 mph 19.6 mph N/A   Clear
4:15 AM 73.4 °F - 73.0 °F 99% 29.84 in 10.0 mi South 11.5 mph - N/A   Clear
4:35 AM 73.4 °F - 73.4 °F 100% 29.84 in 10.0 mi South 13.8 mph - N/A   Clear
4:55 AM 73.4 °F - 73.6 °F 100% 29.84 in 10.0 mi South 11.5 mph - N/A   Clear
5:15 AM 73.4 °F - 73.6 °F 100% 29.84 in 10.0 mi South 12.7 mph - N/A   Clear
5:35 AM 73.4 °F - 73.6 °F 100% 29.84 in 10.0 mi South 12.7 mph 20.7 mph N/A   Clear
5:55 AM 73.4 °F - 73.6 °F 100% 29.85 in 10.0 mi South 11.5 mph 19.6 mph N/A   Clear
6:15 AM 73.4 °F - 73.6 °F 100% 29.85 in 10.0 mi South 13.8 mph 20.7 mph N/A   Clear
6:35 AM 73.4 °F - 73.6 °F 100% 29.85 in 10.0 mi South 13.8 mph 18.4 mph N/A   Clear
6:55 AM 73.4 °F - 73.6 °F 100% 29.86 in 10.0 mi South 11.5 mph 19.6 mph N/A   Clear
7:35 AM 73.4 °F - 73.6 °F 100% 29.87 in 10.0 mi South 12.7 mph 18.4 mph N/A   Clear
7:55 AM 73.4 °F - 73.6 °F 100% 29.87 in 10.0 mi South 13.8 mph - N/A   Clear
8:15 AM 75.0 °F - 74.8 °F 99% 29.87 in 10.0 mi SSW 13.8 mph - N/A   Clear
8:35 AM 76.1 °F - 74.1 °F 94% 29.87 in 10.0 mi SSW 15.0 mph 25.3 mph N/A   Clear
8:55 AM 76.1 °F - 72.3 °F 88% 29.87 in 10.0 mi SSW 16.1 mph 25.3 mph N/A   Clear
9:15 AM 76.1 °F - 71.1 °F 84% 29.87 in 10.0 mi SSW 17.3 mph 26.5 mph N/A   Clear
9:35 AM 77.0 °F - 71.2 °F 82% 29.87 in 10.0 mi SSW 17.3 mph 28.8 mph N/A   Clear
9:55 AM 78.4 °F - 70.9 °F 77% 29.87 in 10.0 mi SSW 19.6 mph 24.2 mph N/A   Clear
10:15 AM 78.4 °F - 69.6 °F 74% 29.87 in 10.0 mi SSW 16.1 mph 27.6 mph N/A   Clear
10:35 AM 79.9 °F - 70.2 °F 72% 29.87 in 10.0 mi SSW 17.3 mph 28.8 mph N/A   Clear
10:55 AM 81.0 °F 84.6 °F 70.3 °F 70% 29.87 in 10.0 mi SSW 20.7 mph 27.6 mph N/A   Scattered Clouds
11:15 AM 80.8 °F 84.2 °F 70.0 °F 70% 29.87 in 10.0 mi SW 20.7 mph 27.6 mph N/A   Scattered Clouds
11:35 AM 81.0 °F 84.4 °F 70.0 °F 69% 29.87 in 10.0 mi SSW 16.1 mph 25.3 mph N/A   Scattered Clouds
11:55 AM 81.1 °F 84.4 °F 69.1 °F 67% 29.87 in 10.0 mi SW 20.7 mph 28.8 mph N/A   Clear
12:15 PM 81.5 °F 84.6 °F 68.9 °F 65% 29.87 in 10.0 mi SSW 17.3 mph 28.8 mph N/A   Scattered Clouds
12:35 PM 82.6 °F 85.7 °F 68.5 °F 62% 29.87 in 10.0 mi SSW 18.4 mph 28.8 mph N/A   Scattered Clouds
12:55 PM 82.9 °F 86.0 °F 68.4 °F 61% 29.86 in 10.0 mi SSW 23.0 mph 27.6 mph N/A   Scattered Clouds
1:15 PM 83.5 °F 86.7 °F 68.2 °F 60% 29.85 in 10.0 mi SSW 20.7 mph 28.8 mph N/A   Scattered Clouds
1:35 PM 83.5 °F 86.4 °F 68.0 °F 59% 29.85 in 10.0 mi SSW 21.9 mph 26.5 mph N/A   Scattered Clouds
1:55 PM 84.0 °F 86.8 °F 67.5 °F 57% 29.84 in 10.0 mi SSW 19.6 mph 26.5 mph N/A   Clear
2:15 PM 83.7 °F 86.5 °F 67.3 °F 58% 29.83 in 10.0 mi SW 15.0 mph 26.5 mph N/A   Clear
2:35 PM 84.2 °F 87.3 °F 67.8 °F 58% 29.83 in 10.0 mi SSW 13.8 mph 23.0 mph N/A   Clear
2:55 PM 84.9 °F 88.2 °F 68.0 °F 57% 29.82 in 10.0 mi South 17.3 mph - N/A   Clear
3:15 PM 85.3 °F 88.2 °F 67.6 °F 55% 29.82 in 10.0 mi South 18.4 mph 23.0 mph N/A   Clear
3:35 PM 85.6 °F 88.5 °F 67.3 °F 54% 29.82 in 10.0 mi South 18.4 mph 25.3 mph N/A   Clear
3:55 PM 85.1 °F 87.7 °F 66.7 °F 54% 29.82 in 10.0 mi SSW 17.3 mph 25.3 mph N/A   Clear
4:15 PM 84.6 °F 86.8 °F 66.0 °F 54% 29.82 in 10.0 mi South 18.4 mph 24.2 mph N/A   Clear
4:35 PM 84.6 °F 87.1 °F 66.6 °F 55% 29.82 in 10.0 mi South 17.3 mph 21.9 mph N/A   Clear
4:55 PM 84.6 °F 86.8 °F 66.0 °F 54% 29.82 in 10.0 mi SSW 15.0 mph 20.7 mph N/A   Clear
5:15 PM 84.2 °F 86.3 °F 65.8 °F 54% 29.82 in 10.0 mi South 13.8 mph 23.0 mph N/A   Scattered Clouds
5:35 PM 83.5 °F 85.7 °F 66.2 °F 56% 29.82 in 10.0 mi South 10.4 mph 19.6 mph N/A   Scattered Clouds
5:55 PM 82.9 °F 85.0 °F 65.8 °F 56% 29.82 in 10.0 mi South 12.7 mph 23.0 mph N/A   Scattered Clouds
6:15 PM 82.4 °F 84.1 °F 64.9 °F 55% 29.81 in 10.0 mi South 13.8 mph 23.0 mph N/A   Clear
6:35 PM 81.5 °F 83.4 °F 65.5 °F 58% 29.81 in 10.0 mi South 12.7 mph 18.4 mph N/A   Clear
6:55 PM 81.0 °F 83.2 °F 66.4 °F 61% 29.82 in 10.0 mi South 12.7 mph 17.3 mph N/A   Clear
7:15 PM 81.0 °F 83.2 °F 66.4 °F 61% 29.83 in 10.0 mi South 12.7 mph 18.4 mph N/A   Clear
7:35 PM 79.5 °F - 65.3 °F 62% 29.84 in 10.0 mi South 9.2 mph - N/A   Clear
7:55 PM 78.4 °F - 65.5 °F 64% 29.85 in 10.0 mi South 8.1 mph - N/A   Clear
8:15 PM 78.4 °F - 66.4 °F 66% 29.85 in 10.0 mi South 8.1 mph - N/A   Clear
8:35 PM 78.3 °F - 66.9 °F 68% 29.85 in 10.0 mi South 9.2 mph - N/A   Clear
8:55 PM 76.8 °F - 66.0 °F 69% 29.86 in 10.0 mi South 8.1 mph - N/A   Clear
9:15 PM 76.3 °F - 65.5 °F 69% 29.86 in 10.0 mi South 9.2 mph - N/A   Clear
9:35 PM 76.1 °F - 65.5 °F 70% 29.87 in 10.0 mi South 10.4 mph - N/A   Clear
9:55 PM 76.1 °F - 65.5 °F 70% 29.87 in 10.0 mi South 10.4 mph - N/A   Clear
10:15 PM 76.1 °F - 65.3 °F 69% 29.87 in 10.0 mi South 9.2 mph - N/A   Clear
10:35 PM 76.3 °F - 65.5 °F 69% 29.87 in 10.0 mi South 10.4 mph - N/A   Clear
10:55 PM 76.3 °F - 65.3 °F 69% 29.90 in 10.0 mi SW 6.9 mph - N/A   Clear
11:15 PM 76.1 °F - 65.8 °F 70% 29.91 in 10.0 mi SW 8.1 mph - N/A   Scattered Clouds
11:35 PM 76.1 °F - 65.8 °F 70% 29.91 in 10.0 mi SSW 8.1 mph - N/A   Scattered Clouds
11:55 PM 76.1 °F - 66.4 °F 72% - 10.0 mi SSW 8.1 mph - N/A   Scattered Clouds